VK1ET-13 Weather Reports


Display with metric or nautical units.
time (UTC)temp
F
wind
direction
speed
MPH
gust
MPH
rain 1hr
in
rain 24hr
in
rain mn
in
humidity
%
barometer
mb
20260831062536 69 324 6.0 9.0 0.00 0.00 0.00 50 1027.8
20260831061522 70 327 6.0 11.0 0.00 0.00 0.00 47 1027.9
20260831060532 69 332 7.0 13.0 0.00 0.00 0.00 43 1027.9
20260831055535 70 334 7.0 13.0 0.00 0.00 0.00 38 1027.9
20260831054534 70 359 5.0 10.0 0.00 0.00 0.00 35 1027.8
20260831053518 70 346 4.0 8.0 0.00 0.00 0.00 40 1027.9
20260831052530 70 348 5.0 11.0 0.00 0.00 0.00 41 1028.1
20260831051529 70 357 5.0 10.0 0.00 0.00 0.00 41 1028.2
20260831050537 70 0 5.0 9.0 0.00 0.00 0.00 38 1028.2
20260831045523 71 342 6.0 11.0 0.00 0.00 0.00 36 1028.2
20260831044537 70 339 4.0 9.0 0.00 0.00 0.00 37 1028.2
20260831043542 71 324 7.0 11.0 0.00 0.00 0.00 39 1028.3
20260831042521 70 345 4.0 8.0 0.00 0.00 0.00 42 1028.4
20260831041523 70 330 7.0 13.0 0.00 0.00 0.00 41 1028.4
20260831040530 70 329 6.0 11.0 0.00 0.00 0.00 40 1028.4
20260831035531 70 341 5.0 9.0 0.00 0.00 0.00 42 1028.5
20260831034535 70 327 6.0 13.0 0.00 0.00 0.00 40 1028.5
20260831033519 70 337 6.0 10.0 0.00 0.00 0.00 41 1028.7
20260831032522 69 334 5.0 10.0 0.00 0.00 0.00 43 1028.7
20260831031534 70 331 7.0 12.0 0.00 0.00 0.00 45 1029.1
20260831030535 69 329 6.0 10.0 0.00 0.00 0.00 45 1029.1
20260831025534 69 343 5.0 8.0 0.00 0.00 0.00 45 1029.1
20260831024525 69 342 4.0 10.0 0.00 0.00 0.00 44 1029.3
20260831023531 69 357 4.0 6.0 0.00 0.00 0.00 42 1029.5
20260831022531 68 347 4.0 7.0 0.00 0.00 0.00 39 1029.6
20260831021536 69 330 5.0 9.0 0.00 0.00 0.00 41 1029.8
20260831020519 68 329 4.0 9.0 0.00 0.00 0.00 43 1029.8
20260831015523 68 318 2.0 5.0 0.00 0.00 0.00 44 1029.9
20260831014529 66 278 1.0 3.0 0.00 0.00 0.00 47 1030.0
20260831013535 66 301 3.0 6.0 0.00 0.00 0.00 46 1030.2
20260831012520 65 301 2.0 5.0 0.00 0.00 0.00 49 1030.4
20260831011525 63 286 1.0 2.0 0.00 0.00 0.00 52 1030.4
20260831010535 62 289 3.0 4.0 0.00 0.00 0.00 57 1030.6
20260831005533 61 268 2.0 5.0 0.00 0.00 0.00 58 1030.7
20260831004517 60 206 2.0 4.0 0.00 0.00 0.00 59 1030.8
20260831003523 59 197 3.0 4.0 0.00 0.00 0.00 62 1030.9
20260831002534 59 191 3.0 6.0 0.00 0.00 0.00 63 1030.9
20260831001540 57 211 2.0 6.0 0.00 0.00 0.00 64 1031.1
20260831000517 56 194 3.0 4.0 0.00 0.00 0.00 65 1031.1
20260830235525 56 184 4.0 6.0 0.00 0.00 0.00 63 1031.1
20260830234528 55 195 3.0 5.0 0.00 0.00 0.00 63 1031.2
20260830233534 54 187 3.0 5.0 0.00 0.00 0.00 65 1031.2
20260830232518 54 174 4.0 7.0 0.00 0.00 0.00 65 1031.3
20260830231524 53 167 4.0 6.0 0.00 0.00 0.00 67 1031.4
20260830230529 53 163 4.0 6.0 0.00 0.00 0.00 68 1031.3
20260830225534 52 169 3.0 6.0 0.00 0.00 0.00 70 1031.3
20260830224519 52 188 2.0 4.0 0.00 0.00 0.00 74 1031.3
20260830223534 50 171 3.0 5.0 0.00 0.00 0.00 79 1031.3
20260830222518 50 190 3.0 4.0 0.00 0.00 0.00 82 1031.3
20260830221522 49 176 2.0 4.0 0.00 0.00 0.00 82 1031.2
20260830220529 48 169 2.0 4.0 0.00 0.00 0.00 85 1031.0
20260830215548 46 172 2.0 4.0 0.00 0.00 0.00 90 1031.1
20260830214520 45 173 3.0 4.0 0.00 0.00 0.00 93 1031.0
20260830213523 44 181 2.0 3.0 0.00 0.00 0.00 93 1031.0
20260830212528 43 172 2.0 4.0 0.00 0.00 0.00 92 1030.8
20260830211533 43 182 1.0 3.0 0.00 0.00 0.00 92 1030.8
20260830210518 43 267 0.0 2.0 0.00 0.00 0.00 93 1030.7
20260830205524 43 209 1.0 2.0 0.00 0.00 0.00 93 1030.7
20260830204528 43 189 0.0 2.0 0.00 0.00 0.00 93 1030.5
20260830203534 43 171 1.0 3.0 0.00 0.00 0.00 93 1030.4
20260830202518 43 115 0.0 2.0 0.00 0.00 0.00 93 1030.3
20260830201530 43 84 0.0 1.0 0.00 0.00 0.00 93 1030.1
20260830200528 42 37 1.0 2.0 0.00 0.00 0.00 93 1030.1
20260830195533 42 94 1.0 3.0 0.00 0.00 0.00 94 1029.9
20260830194518 42 145 2.0 4.0 0.00 0.00 0.00 95 1029.8
20260830193531 43 156 4.0 5.0 0.00 0.00 0.00 96 1029.7
20260830192530 43 172 2.0 3.0 0.00 0.00 0.00 95 1029.6
20260830191536 44 177 2.0 4.0 0.00 0.00 0.00 94 1029.6
20260830190520 45 164 2.0 4.0 0.00 0.00 0.00 93 1029.5
20260830185528 46 85 0.0 2.0 0.00 0.00 0.00 88 1029.3
20260830184532 45 71 2.0 4.0 0.00 0.00 0.00 95 1029.2
20260830183536 45 80 1.0 2.0 0.00 0.00 0.00 95 1029.2
20260830182522 45 84 0.0 2.0 0.00 0.00 0.00 95 1029.3
20260830181525 45 138 1.0 2.0 0.00 0.00 0.00 94 1029.4
20260830180534 46 131 1.0 2.0 0.00 0.00 0.00 94 1029.3
20260830175532 46 105 1.0 3.0 0.00 0.00 0.00 95 1029.0
20260830174516 46 73 2.0 3.0 0.00 0.00 0.00 96 1028.9
20260830173521 46 33 3.0 4.0 0.00 0.00 0.00 96 1029.0
20260830172524 46 62 1.0 4.0 0.00 0.00 0.00 96 1029.0
20260830171530 46 136 2.0 4.0 0.00 0.00 0.00 96 1029.1
20260830170534 47 41 1.0 3.0 0.00 0.00 0.00 95 1029.1
20260830165518 47 31 2.0 3.0 0.00 0.00 0.00 95 1029.3
20260830164522 47 68 2.0 3.0 0.00 0.00 0.00 95 1029.4
20260830163530 47 140 2.0 3.0 0.00 0.00 0.00 95 1029.2
20260830162533 48 125 2.0 3.0 0.00 0.00 0.00 94 1029.4
20260830161519 48 152 2.0 4.0 0.00 0.00 0.00 95 1029.3
20260830160524 48 152 3.0 6.0 0.00 0.00 0.00 94 1029.6
20260830155528 48 137 2.0 4.0 0.00 0.00 0.00 94 1029.7
20260830154535 48 170 3.0 4.0 0.00 0.00 0.00 94 1029.7
20260830153524 48 142 2.0 4.0 0.00 0.00 0.00 94 1029.8
20260830152522 48 62 1.0 3.0 0.00 0.00 0.00 93 1029.7
20260830151528 48 27 2.0 4.0 0.00 0.00 0.00 93 1029.7
20260830150533 49 82 1.0 3.0 0.00 0.00 0.00 92 1029.9
20260830145517 49 18 3.0 6.0 0.00 0.00 0.00 92 1030.0
20260830144522 49 143 2.0 3.0 0.00 0.00 0.00 92 1030.0
20260830143526 50 153 3.0 5.0 0.00 0.00 0.00 91 1030.1
20260830142532 50 79 2.0 5.0 0.00 0.00 0.00 90 1030.0
20260830141534 50 73 1.0 3.0 0.00 0.00 0.00 91 1030.1
20260830140517 49 161 2.0 5.0 0.00 0.00 0.00 92 1030.1
20260830135523 50 155 2.0 5.0 0.00 0.00 0.00 91 1030.2
20260830134526 50 27 3.0 6.0 0.00 0.00 0.00 91 1030.3
20260830133530 50 136 1.0 3.0 0.00 0.00 0.00 90 1030.1
20260830132534 51 109 2.0 4.0 0.00 0.00 0.00 89 1030.3
20260830131518 51 147 1.0 4.0 0.00 0.00 0.00 90 1030.3
20260830130539 51 328 1.0 4.0 0.00 0.00 0.00 87 1030.5
20260830125527 52 167 1.0 2.0 0.00 0.00 0.00 87 1030.3
20260830124530 53 0.0 1.0 0.00 0.00 0.00 85 1030.4
20260830123534 53 0.0 2.0 0.00 0.00 0.00 84 1030.3
20260830122517 53 0.0 0.0 0.00 0.00 0.00 84 1030.5
20260830121520 54 0.0 0.0 0.00 0.00 0.00 83 1030.5
20260830120525 54 0.0 1.0 0.00 0.00 0.00 82 1030.4
20260830115530 54 138 1.0 2.0 0.00 0.00 0.00 82 1030.3
20260830114518 55 146 0.0 1.0 0.00 0.00 0.00 80 1030.3
20260830113521 56 0.0 0.0 0.00 0.00 0.00 78 1030.3
20260830112528 56 68 1.0 2.0 0.00 0.00 0.00 79 1030.2
20260830111531 56 0.0 0.0 0.00 0.00 0.00 78 1030.2
20260830110536 56 39 0.0 1.0 0.00 0.00 0.00 80 1030.1
20260830105520 55 177 0.0 1.0 0.00 0.00 0.00 80 1029.9
20260830104525 56 0.0 0.0 0.00 0.00 0.00 79 1029.8
20260830103528 57 195 1.0 2.0 0.00 0.00 0.00 76 1029.7
20260830102534 57 0.0 1.0 0.00 0.00 0.00 77 1029.6
20260830101525 58 323 0.0 2.0 0.00 0.00 0.00 75 1029.5
20260830100538 58 55 0.0 2.0 0.00 0.00 0.00 75 1029.3
20260830095535 58 10 0.0 1.0 0.00 0.00 0.00 74 1029.2
20260830094533 58 0.0 1.0 0.00 0.00 0.00 74 1029.3
20260830093536 58 1 0.0 2.0 0.00 0.00 0.00 73 1029.2
20260830092519 59 11 3.0 4.0 0.00 0.00 0.00 72 1029.2
20260830091528 59 7 3.0 5.0 0.00 0.00 0.00 71 1029.0
20260830090532 60 5 4.0 5.0 0.00 0.00 0.00 69 1029.0
20260830085533 60 6 4.0 6.0 0.00 0.00 0.00 68 1029.0
20260830084535 60 7 4.0 6.0 0.00 0.00 0.00 66 1028.9
20260830083521 60 10 3.0 6.0 0.00 0.00 0.00 66 1028.9
20260830082526 61 6 4.0 6.0 0.00 0.00 0.00 64 1028.7
20260830081528 62 1 5.0 9.0 0.00 0.00 0.00 62 1028.6
20260830080535 62 359 5.0 8.0 0.00 0.00 0.00 61 1028.4
20260830075520 62 4 5.0 9.0 0.00 0.00 0.00 61 1028.3
20260830074526 63 10 5.0 7.0 0.00 0.00 0.00 61 1028.3
20260830073530 64 357 5.0 8.0 0.00 0.00 0.00 60 1028.2